St. Petersburg Airport, FL

9:11 AM EDT on August 18, 2017 (GMT -0400)
Saint Petersburg-Clearwater International

Weather History for KPIE - January, 2014

Change the Weather History Date:

Saturday, January 11, 2014

  Actual Average Record
Temperature  
Mean Temperature 72 °F -  
Max Temperature 80 °F 69 °F 82 °F (2013)
Min Temperature 64 °F 53 °F 34 °F (1977)
Cooling Degree Days 7    
Growing Degree Days 22 (Base 50)    
Moisture  
Dew Point 69 °F    
Average Humidity 91    
Maximum Humidity 97    
Minimum Humidity 76    
Precipitation  
Precipitation 0.23 in - - ()
Sea Level Pressure  
Sea Level Pressure 30.02 in    
Wind  
Wind Speed 12 mph (SSW)    
Max Wind Speed 22 mph    
Max Gust Speed 31 mph    
Visibility 9 miles    
Events Rain , Thunderstorm    
Averages and records for this station are not official NWS values.
T = Trace of Precipitation, MM = Missing Value Source: NWS Daily Summary

Daily Weather History Graph

Daily Weather History Graph

Search for Another Location

Airport or City:

Trip Planner

Search our weather history database for the weather conditions in past years. The results will help you decide how hot, cold, wet, or windy it might be!

Date:

Astronomy

Jan. 11, 2014 Rise Set
Actual Time 7:23 AM EST 5:54 PM EST
Civil Twilight 6:57 AM EST 6:19 PM EST
Nautical Twilight 6:29 AM EST 6:48 PM EST
Astronomical Twilight 6:00 AM EST 7:17 PM EST
Moon 2:34 PM EST (1/11) 3:31 AM EST (1/11)
Length of Visible Light 11h 21m
Length of Day
10h 30m
Waxing Gibbous, 83% of the Moon is Illuminated
Jan 11
Waxing Gibbous
Jan 15
Full
Jan 24
Last Quarter
Jan 30
New
Feb 6
First Quarter

Hourly Weather History & Observations

Time (EST) Temp. Heat Index Dew Point Humidity Pressure Visibility Wind Dir Wind Speed Gust Speed Precip Events Conditions
12:53 AM 66.9 °F - 64.9 °F 93% 30.07 in 10.0 mi ESE 5.8 mph - N/A   Clear
1:53 AM 68.0 °F - 66.9 °F 96% 30.06 in 10.0 mi SSE 6.9 mph - N/A   Clear
2:53 AM 69.1 °F - 68.0 °F 96% 30.04 in 10.0 mi SSE 8.1 mph - N/A   Clear
3:53 AM 70.0 °F - 68.0 °F 93% 30.04 in 10.0 mi SSE 9.2 mph - N/A   Partly Cloudy
4:53 AM 70.0 °F - 68.0 °F 93% 30.04 in 10.0 mi SSE 6.9 mph - N/A   Partly Cloudy
5:19 AM 70.0 °F - 69.1 °F 97% 30.04 in 10.0 mi SE 5.8 mph - N/A   Mostly Cloudy
5:43 AM 70.0 °F - 68.0 °F 93% 30.04 in 10.0 mi SSE 8.1 mph - N/A   Mostly Cloudy
5:53 AM 70.0 °F - 69.1 °F 97% 30.03 in 10.0 mi SSE 10.4 mph - N/A   Overcast
6:22 AM 70.0 °F - 69.1 °F 97% 30.03 in 7.0 mi SSE 9.2 mph - N/A   Overcast
6:53 AM 71.1 °F - 70.0 °F 96% 30.04 in 8.0 mi South 11.5 mph - N/A   Overcast
7:19 AM 71.1 °F - 70.0 °F 96% 30.04 in 10.0 mi South 11.5 mph - 0.00 in   Overcast
7:53 AM 72.0 °F - 70.0 °F 93% 30.05 in 10.0 mi South 11.5 mph - 0.00 in   Overcast
8:53 AM 73.0 °F - 71.1 °F 93% 30.07 in 10.0 mi South 16.1 mph - N/A   Overcast
9:53 AM 73.9 °F - 71.1 °F 91% 30.08 in 10.0 mi SSW 16.1 mph - N/A   Overcast
10:53 AM 77.0 °F - 72.0 °F 84% 30.07 in 10.0 mi South 19.6 mph 26.5 mph N/A   Mostly Cloudy
11:12 AM 78.1 °F - 72.0 °F 81% 30.06 in 10.0 mi South 19.6 mph 28.8 mph N/A   Mostly Cloudy
11:53 AM 78.1 °F - 71.1 °F 79% 30.04 in 10.0 mi South 18.4 mph 27.6 mph N/A   Mostly Cloudy
12:53 PM 80.1 °F 83.8 °F 72.0 °F 76% 30.00 in 10.0 mi South 21.9 mph 31.1 mph N/A   Mostly Cloudy
1:53 PM 79.0 °F - 71.1 °F 77% 29.97 in 10.0 mi SSW 21.9 mph 29.9 mph N/A   Mostly Cloudy
2:53 PM 77.0 °F - 71.1 °F 82% 29.97 in 10.0 mi SSW 19.6 mph 27.6 mph N/A   Mostly Cloudy
3:53 PM 75.0 °F - 70.0 °F 84% 29.96 in 10.0 mi SSW 16.1 mph 26.5 mph N/A   Mostly Cloudy
4:30 PM 73.9 °F - 70.0 °F 87% 29.96 in 10.0 mi SSW 21.9 mph 27.6 mph N/A   Overcast
4:53 PM 73.9 °F - 71.1 °F 91% 29.96 in 10.0 mi SSW 18.4 mph 26.5 mph N/A   Overcast
5:53 PM 73.0 °F - 71.1 °F 93% 29.96 in 6.0 mi SSW 18.4 mph 26.5 mph 0.00 in Rain Light Rain
6:16 PM 73.0 °F - 71.1 °F 93% 29.96 in 6.0 mi SSW 17.3 mph - 0.01 in Rain Light Rain
6:26 PM 73.0 °F - 71.1 °F 93% 29.97 in 6.0 mi SW 18.4 mph 25.3 mph 0.09 in Rain , Thunderstorm Light Rain
6:53 PM 71.1 °F - 69.1 °F 93% 29.98 in 6.0 mi SW 15.0 mph 21.9 mph 0.16 in Rain , Thunderstorm Light Rain
6:56 PM 71.1 °F - 69.1 °F 93% 29.98 in 10.0 mi SSW 15.0 mph - 0.00 in Rain , Thunderstorm Light Rain
7:03 PM 71.1 °F - 69.1 °F 93% 29.98 in 10.0 mi SSW 17.3 mph - 0.00 in   Overcast
7:30 PM 70.0 °F - 66.9 °F 90% 30.00 in 10.0 mi West 13.8 mph 24.2 mph 0.07 in Rain Light Rain
7:53 PM 69.1 °F - 66.9 °F 93% 30.01 in 10.0 mi West 15.0 mph 24.2 mph 0.07 in   Overcast
8:23 PM 68.0 °F - 66.0 °F 93% 30.01 in 10.0 mi West 11.5 mph - 0.00 in Rain Light Rain
8:40 PM 68.0 °F - 66.0 °F 93% 30.00 in 10.0 mi West 10.4 mph - 0.00 in Rain Light Rain
8:53 PM 68.0 °F - 66.0 °F 93% 30.01 in 10.0 mi West 10.4 mph - 0.00 in   Mostly Cloudy
9:53 PM 66.9 °F - 64.9 °F 93% 30.02 in 10.0 mi WSW 8.1 mph - 0.00 in   Partly Cloudy
10:53 PM 64.0 °F - 61.0 °F 90% 30.03 in 10.0 mi SSW 6.9 mph - N/A   Clear
11:53 PM 64.0 °F - 61.0 °F 90% 30.03 in 10.0 mi SW 8.1 mph - N/A   Clear